"read_dt","SO2 (ppb)","flags","PMT voltage (V)","lamp voltage (V)","lamp intensity (Hz)","internal temp (C)","react chamber temp (C)","sample flow (l/min)","pres (mmHg)","SO2 bkg (ppb)","SO2 coefficient"
2016-01-09 00:00:00,1706E-3,5C000400,-0724,0831,12188,023.1,045.3,0.264,772.6,01.15,0.508
2016-01-09 00:01:00,1758E-3,5C000400,-0724,0831,12206,023.1,045.3,0.264,772.6,01.15,0.508
2016-01-09 00:02:00,1668E-3,5C000400,-0724,0831,12228,023.2,045.3,0.265,772.5,01.15,0.508
2016-01-09 00:03:00,1778E-3,5C000400,-0724,0831,12139,023.2,045.3,0.264,772.5,01.15,0.508
2016-01-09 00:04:00,1678E-3,5C000400,-0724,0831,12095,023.1,045.3,0.264,772.5,01.15,0.508
2016-01-09 00:05:00,1820E-3,5C000400,-0724,0832,12244,023.1,045.3,0.265,772.5,01.15,0.508
2016-01-09 00:06:00,1774E-3,5C000400,-0724,0831,12196,023.1,045.3,0.265,772.6,01.15,0.508
2016-01-09 00:07:00,1725E-3,5C000400,-0724,0832,12214,023.2,045.3,0.264,772.6,01.15,0.508
2016-01-09 00:08:00,1672E-3,5C000400,-0724,0831,12222,023.2,045.3,0.264,772.6,01.15,0.508
2016-01-09 00:09:00,1786E-3,5C000400,-0724,0831,12225,023.1,045.3,0.265,772.6,01.15,0.508
2016-01-09 00:10:00,1704E-3,5C000400,-0724,0831,12269,023.2,045.3,0.264,772.6,01.15,0.508
2016-01-09 00:11:00,1701E-3,5C000400,-0724,0831,12239,023.1,045.3,0.264,772.6,01.15,0.508
2016-01-09 00:12:00,1829E-3,5C000400,-0724,0831,12166,023.1,045.3,0.265,772.6,01.15,0.508
2016-01-09 00:13:00,1789E-3,5C000400,-0724,0831,12083,023.2,045.3,0.264,772.7,01.15,0.508
2016-01-09 00:14:00,1723E-3,5C000400,-0724,0831,12195,023.2,045.3,0.264,772.6,01.15,0.508
2016-01-09 00:15:00,1861E-3,5C000400,-0724,0832,12209,023.2,045.3,0.265,772.6,01.15,0.508
2016-01-09 00:16:00,1800E-3,5C000400,-0724,0832,12199,023.1,045.3,0.265,772.6,01.15,0.508
2016-01-09 00:17:00,1866E-3,5C000400,-0724,0831,12109,023.2,045.3,0.265,772.6,01.15,0.508
2016-01-09 00:18:00,1699E-3,5C000400,-0724,0832,12238,023.2,045.3,0.264,772.6,01.15,0.508
2016-01-09 00:19:00,1781E-3,5C000400,-0724,0832,12123,023.1,045.3,0.265,772.6,01.15,0.508
2016-01-09 00:20:00,1698E-3,5C000400,-0724,0831,12270,023.2,045.3,0.264,772.6,01.15,0.508
2016-01-09 00:21:00,1879E-3,5C000400,-0724,0832,12274,023.2,045.3,0.264,772.6,01.15,0.508
2016-01-09 00:22:00,1860E-3,5C000400,-0724,0832,12084,023.2,045.3,0.264,772.7,01.15,0.508
2016-01-09 00:23:00,1683E-3,5C000400,-0724,0832,12157,023.2,045.3,0.265,772.8,01.15,0.508
2016-01-09 00:24:00,1747E-3,5C000400,-0724,0832,12198,023.1,045.3,0.264,772.8,01.15,0.508
2016-01-09 00:25:00,1600E-3,5C000400,-0724,0831,12189,023.2,045.3,0.264,772.8,01.15,0.508
2016-01-09 00:26:00,1752E-3,5C000400,-0724,0831,12115,023.2,045.3,0.265,772.8,01.15,0.508
2016-01-09 00:27:00,1662E-3,5C000400,-0724,0832,12209,023.1,045.3,0.264,772.8,01.15,0.508
2016-01-09 00:28:00,1644E-3,5C000400,-0724,0832,12088,023.2,045.3,0.264,772.8,01.15,0.508
2016-01-09 00:29:00,1867E-3,5C000400,-0724,0832,12159,023.1,045.3,0.265,772.8,01.15,0.508
2016-01-09 00:30:00,1720E-3,5C000400,-0724,0831,12194,023.2,045.3,0.264,772.8,01.15,0.508
2016-01-09 00:31:00,1684E-3,5C000400,-0724,0832,12172,023.1,045.3,0.264,772.7,01.15,0.508
2016-01-09 00:32:00,1664E-3,5C000400,-0724,0831,12166,023.2,045.3,0.265,772.8,01.15,0.508
2016-01-09 00:33:00,1722E-3,5C000400,-0724,0832,12250,023.1,045.3,0.264,772.8,01.15,0.508
2016-01-09 00:34:00,1758E-3,5C000400,-0724,0831,12046,023.1,045.3,0.264,772.8,01.15,0.508
2016-01-09 00:35:00,1817E-3,5C000400,-0724,0833,12271,023.1,045.3,0.264,772.8,01.15,0.508
2016-01-09 00:36:00,1698E-3,5C000400,-0724,0832,12236,023.2,045.3,0.264,772.8,01.15,0.508
2016-01-09 00:37:00,1688E-3,5C000400,-0724,0832,12127,023.2,045.3,0.264,772.8,01.15,0.508
2016-01-09 00:38:00,1664E-3,5C000400,-0724,0832,12106,023.2,045.3,0.264,772.8,01.15,0.508
2016-01-09 00:39:00,1713E-3,5C000400,-0724,0832,12087,023.2,045.3,0.265,772.8,01.15,0.508
2016-01-09 00:40:00,1793E-3,5C000400,-0724,0832,12183,023.2,045.3,0.264,772.8,01.15,0.508
2016-01-09 00:41:00,1718E-3,5C000400,-0724,0831,12086,023.2,045.3,0.264,772.8,01.15,0.508
2016-01-09 00:42:00,1816E-3,5C000400,-0724,0831,12143,023.2,045.3,0.265,772.8,01.15,0.508
2016-01-09 00:43:00,1722E-3,5C000400,-0724,0832,12221,023.2,045.3,0.264,772.8,01.15,0.508
2016-01-09 00:44:00,1760E-3,5C000400,-0724,0830,12221,023.1,045.3,0.264,772.8,01.15,0.508
2016-01-09 00:45:00,1721E-3,5C000400,-0724,0832,12190,023.2,045.3,0.265,772.8,01.15,0.508
2016-01-09 00:46:00,1729E-3,5C000400,-0724,0832,12110,023.2,045.3,0.264,772.7,01.15,0.508
2016-01-09 00:47:00,1626E-3,5C000400,-0724,0832,12261,023.2,045.3,0.264,772.7,01.15,0.508
2016-01-09 00:48:00,1675E-3,5C000400,-0724,0832,12231,023.2,045.3,0.265,772.7,01.15,0.508
2016-01-09 00:49:00,1773E-3,5C000400,-0724,0832,12100,023.2,045.3,0.264,772.7,01.15,0.508
2016-01-09 00:50:00,1792E-3,5C000400,-0724,0831,12149,023.2,045.3,0.264,772.7,01.15,0.508
2016-01-09 00:51:00,1786E-3,5C000400,-0724,0831,12145,023.2,045.3,0.265,772.7,01.15,0.508
2016-01-09 00:52:00,1725E-3,5C000400,-0724,0831,12213,023.2,045.3,0.264,772.7,01.15,0.508
2016-01-09 00:53:00,1624E-3,5C000400,-0724,0831,12081,023.2,045.3,0.264,772.7,01.15,0.508
2016-01-09 00:54:00,1752E-3,5C000400,-0724,0832,12131,023.1,045.3,0.265,772.7,01.15,0.508
2016-01-09 00:55:00,1646E-3,5C000400,-0724,0832,12283,023.2,045.3,0.264,772.6,01.15,0.508
2016-01-09 00:56:00,1792E-3,5C000400,-0724,0832,12240,023.2,045.3,0.264,772.6,01.15,0.508
2016-01-09 00:57:00,1765E-3,5C000400,-0724,0832,12141,023.2,045.3,0.264,772.6,01.15,0.508
2016-01-09 00:58:00,1740E-3,5C000400,-0724,0831,12097,023.2,045.3,0.264,772.6,01.15,0.508
2016-01-09 00:59:00,1742E-3,5C000400,-0724,0832,12284,023.2,045.3,0.264,772.6,01.15,0.508
2016-01-09 01:00:00,1815E-3,5C000400,-0724,0831,12129,023.2,045.3,0.264,772.6,01.15,0.508
2016-01-09 01:01:00,1696E-3,5C000400,-0724,0832,12156,023.2,045.3,0.264,772.6,01.15,0.508
2016-01-09 01:02:00,1707E-3,5C000400,-0724,0831,12129,023.2,045.3,0.264,772.6,01.15,0.508
2016-01-09 01:03:00,1714E-3,5C000400,-0724,0832,12087,023.1,045.3,0.264,772.6,01.15,0.508
2016-01-09 01:04:00,1708E-3,5C000400,-0724,0832,12248,023.2,045.3,0.264,772.7,01.15,0.508
2016-01-09 01:05:00,1751E-3,5C000400,-0724,0831,12240,023.2,045.3,0.264,772.6,01.15,0.508
2016-01-09 01:06:00,1832E-3,5C000400,-0724,0832,12215,023.2,045.3,0.264,772.7,01.15,0.508
2016-01-09 01:07:00,1747E-3,5C000400,-0724,0832,12099,023.2,045.3,0.264,772.7,01.15,0.508
2016-01-09 01:08:00,1767E-3,5C000400,-0724,0831,12077,023.2,045.3,0.264,772.7,01.15,0.508
2016-01-09 01:09:00,1729E-3,5C000400,-0724,0832,12054,023.2,045.3,0.264,772.7,01.15,0.508
2016-01-09 01:10:00,1855E-3,5C000400,-0724,0832,12101,023.2,045.3,0.264,772.6,01.15,0.508
2016-01-09 01:11:00,1761E-3,5C000400,-0724,0831,12194,023.2,045.3,0.265,772.6,01.15,0.508
2016-01-09 01:12:00,1794E-3,5C000400,-0724,0832,12235,023.2,045.3,0.264,772.6,01.15,0.508
2016-01-09 01:13:00,1758E-3,5C000400,-0724,0831,12122,023.2,045.3,0.264,772.6,01.15,0.508
2016-01-09 01:14:00,1740E-3,5C000400,-0724,0832,12243,023.2,045.3,0.265,772.6,01.15,0.508
2016-01-09 01:15:00,1822E-3,5C000400,-0724,0832,12430,023.2,045.3,0.265,772.6,01.15,0.508
2016-01-09 01:16:00,1649E-3,5C000400,-0724,0831,12071,023.2,045.3,0.265,772.6,01.15,0.508
2016-01-09 01:17:00,1814E-3,5C000400,-0724,0833,12165,023.2,045.3,0.264,772.6,01.15,0.508
2016-01-09 01:18:00,1639E-3,5C000400,-0724,0831,12181,023.2,045.3,0.264,772.6,01.15,0.508
2016-01-09 01:19:00,1662E-3,5C000400,-0724,0832,12236,023.2,045.3,0.265,772.6,01.15,0.508
2016-01-09 01:20:00,1695E-3,5C000400,-0724,0832,12057,023.2,045.3,0.264,772.6,01.15,0.508
2016-01-09 01:21:00,1624E-3,5C000400,-0724,0833,12130,023.2,045.3,0.264,772.6,01.15,0.508
2016-01-09 01:22:00,1747E-3,5C000400,-0724,0832,12198,023.2,045.3,0.265,772.6,01.15,0.508
2016-01-09 01:23:00,1671E-3,5C000400,-0724,0832,12229,023.2,045.3,0.264,772.6,01.15,0.508
2016-01-09 01:24:00,1812E-3,5C000400,-0724,0831,12238,023.2,045.3,0.264,772.6,01.15,0.508
2016-01-09 01:25:00,1916E-3,5C000400,-0724,0831,12271,023.2,045.3,0.264,772.6,01.15,0.508
2016-01-09 01:26:00,1672E-3,5C000400,-0724,0831,12128,023.2,045.3,0.265,772.6,01.15,0.508
2016-01-09 01:27:00,1840E-3,5C000400,-0724,0831,12141,023.2,045.3,0.264,772.6,01.15,0.508
2016-01-09 01:28:00,1749E-3,5C000400,-0724,0832,12227,023.2,045.3,0.264,772.6,01.15,0.508
2016-01-09 01:29:00,1813E-3,5C000400,-0724,0831,12137,023.2,045.3,0.264,772.6,01.15,0.508
2016-01-09 01:30:00,1735E-3,5C000400,-0724,0831,12281,023.2,045.3,0.265,772.5,01.15,0.508
2016-01-09 01:31:00,1670E-3,5C000400,-0724,0831,12259,023.2,045.3,0.264,772.5,01.15,0.508
2016-01-09 01:32:00,1710E-3,5C000400,-0724,0832,12240,023.2,045.3,0.264,772.5,01.15,0.508
2016-01-09 01:33:00,1672E-3,5C000400,-0724,0832,12285,023.2,045.3,0.264,772.5,01.15,0.508
2016-01-09 01:34:00,1784E-3,5C000400,-0724,0831,12035,023.2,045.3,0.264,772.5,01.15,0.508
2016-01-09 01:35:00,1773E-3,5C000400,-0724,0832,12315,023.2,045.3,0.264,772.5,01.15,0.508
2016-01-09 01:36:00,1726E-3,5C000400,-0724,0832,12224,023.2,045.3,0.264,772.5,01.15,0.508
2016-01-09 01:37:00,1715E-3,5C000400,-0724,0832,12083,023.2,045.3,0.265,772.5,01.15,0.508
2016-01-09 01:38:00,1722E-3,5C000400,-0724,0832,12272,023.2,045.3,0.264,772.5,01.15,0.508
2016-01-09 01:39:00,1786E-3,5C000400,-0724,0831,12096,023.2,045.3,0.264,772.5,01.15,0.508
2016-01-09 01:40:00,1744E-3,5C000400,-0724,0832,12235,023.2,045.3,0.264,772.5,01.15,0.508
2016-01-09 01:41:00,1731E-3,5C000400,-0724,0831,12341,023.2,045.3,0.265,772.5,01.15,0.508
2016-01-09 01:42:00,1778E-3,5C000400,-0724,0831,12086,023.2,045.3,0.264,772.5,01.15,0.508
2016-01-09 01:43:00,1784E-3,5C000400,-0724,0832,12170,023.2,045.3,0.264,772.5,01.15,0.508
2016-01-09 01:44:00,1624E-3,5C000400,-0724,0831,12318,023.2,045.3,0.264,772.5,01.15,0.508
2016-01-09 01:45:00,1796E-3,5C000400,-0724,0831,12216,023.2,045.3,0.264,772.5,01.15,0.508
2016-01-09 01:46:00,1650E-3,5C000400,-0724,0832,12247,023.2,045.3,0.264,772.5,01.15,0.508
2016-01-09 01:47:00,1874E-3,5C000400,-0724,0832,12208,023.2,045.3,0.264,772.4,01.15,0.508
2016-01-09 01:48:00,1802E-3,5C000400,-0724,0831,12219,023.2,045.3,0.265,772.5,01.15,0.508
2016-01-09 01:49:00,1747E-3,5C000400,-0724,0832,12249,023.2,045.3,0.264,772.5,01.15,0.508
2016-01-09 01:50:00,1855E-3,5C000400,-0724,0832,11884,023.2,045.3,0.264,772.5,01.15,0.508
2016-01-09 01:51:00,1738E-3,5C000400,-0724,0833,12106,023.2,045.3,0.264,772.5,01.15,0.508
2016-01-09 01:52:00,1735E-3,5C000400,-0724,0832,12114,023.2,045.3,0.265,772.5,01.15,0.508
2016-01-09 01:53:00,1805E-3,5C000400,-0724,0832,12200,023.2,045.3,0.264,772.5,01.15,0.508
2016-01-09 01:54:00,1797E-3,5C000400,-0724,0832,12167,023.2,045.3,0.264,772.5,01.15,0.508
2016-01-09 01:55:00,1798E-3,5C000400,-0724,0832,11993,023.2,045.3,0.264,772.5,01.15,0.508
2016-01-09 01:56:00,1719E-3,5C000400,-0724,0832,12143,023.2,045.3,0.264,772.5,01.15,0.508
2016-01-09 01:57:00,1733E-3,5C000400,-0724,0832,12086,023.2,045.3,0.264,772.6,01.15,0.508
2016-01-09 01:58:00,1592E-3,5C000400,-0724,0832,12170,023.2,045.3,0.264,772.6,01.15,0.508
2016-01-09 01:59:00,1788E-3,5C000400,-0724,0832,12183,023.2,045.3,0.264,772.6,01.15,0.508
2016-01-09 02:00:00,1746E-3,5C000400,-0724,0832,12248,023.2,045.3,0.264,772.5,01.15,0.508
2016-01-09 02:01:00,1749E-3,5C000400,-0724,0832,12359,023.2,045.3,0.264,772.5,01.15,0.508
2016-01-09 02:02:00,1806E-3,5C000400,-0724,0832,12161,023.2,045.3,0.264,772.5,01.15,0.508
2016-01-09 02:03:00,1759E-3,5C000400,-0724,0832,12185,023.2,045.3,0.265,772.5,01.15,0.508
2016-01-09 02:04:00,1750E-3,5C000400,-0724,0831,12160,023.2,045.3,0.264,772.4,01.15,0.508
2016-01-09 02:05:00,1974E-3,5C000400,-0724,0831,12127,023.2,045.3,0.264,772.4,01.15,0.508
2016-01-09 02:06:00,1699E-3,5C000400,-0724,0831,12158,023.2,045.3,0.264,772.4,01.15,0.508
2016-01-09 02:07:00,1661E-3,5C000400,-0724,0832,12189,023.2,045.3,0.265,772.4,01.15,0.508
2016-01-09 02:08:00,1735E-3,5C000400,-0724,0832,12143,023.2,045.3,0.264,772.4,01.15,0.508
2016-01-09 02:09:00,1756E-3,5C000400,-0724,0832,12241,023.2,045.3,0.264,772.4,01.15,0.508
2016-01-09 02:10:00,1743E-3,5C000400,-0724,0832,12164,023.2,045.3,0.264,772.4,01.15,0.508
2016-01-09 02:11:00,1626E-3,5C000400,-0724,0832,12223,023.2,045.3,0.265,772.3,01.15,0.508
2016-01-09 02:12:00,1681E-3,5C000400,-0724,0831,12145,023.2,045.3,0.264,772.4,01.15,0.508
2016-01-09 02:13:00,1713E-3,5C000400,-0724,0832,12273,023.2,045.3,0.264,772.3,01.15,0.508
2016-01-09 02:14:00,1765E-3,5C000400,-0724,0832,12199,023.2,045.3,0.265,772.3,01.15,0.508
2016-01-09 02:15:00,1858E-3,5C000400,-0724,0831,12188,023.2,045.3,0.265,772.3,01.15,0.508
2016-01-09 02:16:00,1782E-3,5C000400,-0724,0831,12095,023.2,045.3,0.265,772.3,01.15,0.508
2016-01-09 02:17:00,1838E-3,5C000400,-0724,0832,12306,023.2,045.3,0.264,772.3,01.15,0.508
2016-01-09 02:18:00,1731E-3,5C000400,-0724,0830,12022,023.2,045.3,0.264,772.3,01.15,0.508
2016-01-09 02:19:00,1669E-3,5C000400,-0724,0831,12079,023.2,045.3,0.265,772.4,01.15,0.508
2016-01-09 02:20:00,1796E-3,5C000400,-0724,0833,12161,023.2,045.3,0.264,772.3,01.15,0.508
2016-01-09 02:21:00,1904E-3,5C000400,-0724,0832,12199,023.2,045.3,0.264,772.3,01.15,0.508
2016-01-09 02:22:00,1674E-3,5C000400,-0724,0832,12240,023.2,045.3,0.264,772.3,01.15,0.508
2016-01-09 02:23:00,1806E-3,5C000400,-0724,0831,12160,023.2,045.3,0.265,772.3,01.15,0.508
2016-01-09 02:24:00,1757E-3,5C000400,-0724,0832,12176,023.2,045.3,0.264,772.3,01.15,0.508
2016-01-09 02:25:00,1782E-3,5C000400,-0724,0832,12171,023.2,045.3,0.264,772.3,01.15,0.508
2016-01-09 02:26:00,1777E-3,5C000400,-0724,0832,12344,023.2,045.3,0.264,772.3,01.15,0.508
2016-01-09 02:27:00,1696E-3,5C000400,-0724,0831,12269,023.2,045.3,0.264,772.3,01.15,0.508
2016-01-09 02:28:00,1726E-3,5C000400,-0724,0831,12091,023.2,045.3,0.264,772.3,01.15,0.508
2016-01-09 02:29:00,1743E-3,5C000400,-0724,0831,12237,023.2,045.3,0.264,772.4,01.15,0.508
2016-01-09 02:30:00,1824E-3,5C000400,-0724,0832,12190,023.2,045.3,0.264,772.3,01.15,0.508
2016-01-09 02:31:00,1747E-3,5C000400,-0724,0832,12249,023.2,045.3,0.264,772.4,01.15,0.508
2016-01-09 02:32:00,1812E-3,5C000400,-0724,0832,12240,023.2,045.3,0.264,772.3,01.15,0.508
2016-01-09 02:33:00,1700E-3,5C000400,-0724,0832,12015,023.2,045.3,0.265,772.3,01.15,0.508
2016-01-09 02:34:00,1806E-3,5C000400,-0724,0832,11955,023.3,045.3,0.264,772.3,01.15,0.508
2016-01-09 02:35:00,1845E-3,5C000400,-0724,0832,12210,023.2,045.3,0.264,772.3,01.15,0.508
2016-01-09 02:36:00,1692E-3,5C000400,-0724,0832,12115,023.2,045.3,0.264,772.3,01.15,0.508
2016-01-09 02:37:00,1774E-3,5C000400,-0724,0832,12223,023.2,045.3,0.264,772.3,01.15,0.508
2016-01-09 02:38:00,1691E-3,5C000400,-0724,0832,12163,023.2,045.3,0.264,772.3,01.15,0.508
2016-01-09 02:39:00,1746E-3,5C000400,-0724,0832,12193,023.2,045.3,0.264,772.3,01.15,0.508
2016-01-09 02:40:00,1700E-3,5C000400,-0724,0832,12043,023.2,045.3,0.264,772.3,01.15,0.508
2016-01-09 02:41:00,1654E-3,5C000400,-0724,0832,12237,023.2,045.3,0.264,772.3,01.15,0.508
2016-01-09 02:42:00,1808E-3,5C000400,-0724,0832,12284,023.2,045.3,0.264,772.3,01.15,0.508
2016-01-09 02:43:00,1716E-3,5C000400,-0724,0832,12263,023.2,045.3,0.264,772.3,01.15,0.508
2016-01-09 02:44:00,1829E-3,5C000400,-0724,0832,12123,023.2,045.3,0.264,772.3,01.15,0.508
2016-01-09 02:45:00,1764E-3,5C000400,-0724,0832,12230,023.2,045.3,0.264,772.3,01.15,0.508
2016-01-09 02:46:00,1749E-3,5C000400,-0724,0832,12157,023.2,045.3,0.264,772.3,01.15,0.508
2016-01-09 02:47:00,1812E-3,5C000400,-0724,0832,12283,023.2,045.3,0.264,772.3,01.15,0.508
2016-01-09 02:48:00,1584E-3,5C000400,-0724,0831,12089,023.2,045.3,0.264,772.3,01.15,0.508
2016-01-09 02:49:00,1837E-3,5C000400,-0724,0832,12186,023.2,045.3,0.265,772.3,01.15,0.508
2016-01-09 02:50:00,1759E-3,5C000400,-0724,0832,12152,023.2,045.3,0.264,772.3,01.15,0.508
2016-01-09 02:51:00,1860E-3,5C000400,-0724,0833,12184,023.2,045.3,0.264,772.3,01.15,0.508
2016-01-09 02:52:00,1643E-3,5C000400,-0724,0832,12148,023.2,045.3,0.265,772.3,01.15,0.508
2016-01-09 02:53:00,1785E-3,5C000400,-0724,0832,12192,023.2,045.3,0.264,772.3,01.15,0.508
2016-01-09 02:54:00,1784E-3,5C000400,-0724,0832,12071,023.2,045.3,0.264,772.3,01.15,0.508
2016-01-09 02:55:00,1678E-3,5C000400,-0724,0832,12132,023.2,045.3,0.264,772.2,01.15,0.508
2016-01-09 02:56:00,1748E-3,5C000400,-0724,0832,12143,023.2,045.3,0.264,772.2,01.15,0.508
2016-01-09 02:57:00,1745E-3,5C000400,-0724,0832,12224,023.2,045.3,0.264,772.2,01.15,0.508
2016-01-09 02:58:00,1848E-3,5C000400,-0724,0832,12230,023.2,045.3,0.264,772.2,01.15,0.508
2016-01-09 02:59:00,1807E-3,5C000400,-0724,0832,12249,023.2,045.3,0.264,772.2,01.15,0.508
2016-01-09 03:00:00,1686E-3,5C000400,-0724,0832,12111,023.2,045.3,0.264,772.1,01.15,0.508
2016-01-09 03:01:00,1740E-3,5C000400,-0724,0833,12288,023.2,045.3,0.264,772.1,01.15,0.508
2016-01-09 03:02:00,1723E-3,5C000400,-0724,0832,12155,023.2,045.3,0.264,772.1,01.15,0.508
2016-01-09 03:03:00,1684E-3,5C000400,-0724,0832,12257,023.2,045.3,0.264,772.1,01.15,0.508
2016-01-09 03:04:00,1638E-3,5C000400,-0724,0832,12233,023.2,045.3,0.264,772.1,01.15,0.508
2016-01-09 03:05:00,1706E-3,5C000400,-0724,0832,12087,023.2,045.3,0.264,772.1,01.15,0.508
2016-01-09 03:06:00,1837E-3,5C000400,-0724,0831,12303,023.2,045.3,0.264,772.1,01.15,0.508
2016-01-09 03:07:00,1802E-3,5C000400,-0724,0832,12100,023.2,045.3,0.264,772.0,01.15,0.508
2016-01-09 03:08:00,1703E-3,5C000400,-0724,0832,12099,023.2,045.3,0.264,772.0,01.15,0.508
2016-01-09 03:09:00,1692E-3,5C000400,-0724,0832,12226,023.2,045.3,0.264,772.0,01.15,0.508
2016-01-09 03:10:00,1832E-3,5C000400,-0724,0832,12148,023.2,045.3,0.264,772.0,01.15,0.508
2016-01-09 03:11:00,1802E-3,5C000400,-0724,0832,12135,023.2,045.3,0.264,772.0,01.15,0.508
2016-01-09 03:12:00,1694E-3,5C000400,-0724,0832,12219,023.3,045.3,0.264,772.0,01.15,0.508
2016-01-09 03:13:00,1728E-3,5C000400,-0724,0832,12180,023.2,045.3,0.264,772.0,01.15,0.508
2016-01-09 03:14:00,1859E-3,5C000400,-0724,0832,12204,023.2,045.3,0.264,771.9,01.15,0.508
2016-01-09 03:15:00,1852E-3,5C000400,-0724,0832,12240,023.3,045.3,0.265,771.9,01.15,0.508
2016-01-09 03:16:00,1838E-3,5C000400,-0724,0832,12259,023.2,045.3,0.265,771.9,01.15,0.508
2016-01-09 03:17:00,1757E-3,5C000400,-0724,0831,12156,023.2,045.3,0.264,771.9,01.15,0.508
2016-01-09 03:18:00,1744E-3,5C000400,-0724,0832,12149,023.2,045.3,0.264,772.0,01.15,0.508
2016-01-09 03:19:00,1751E-3,5C000400,-0724,0831,12108,023.2,045.3,0.264,772.0,01.15,0.508
2016-01-09 03:20:00,1907E-3,5C000400,-0724,0832,12128,023.2,045.3,0.264,772.0,01.15,0.508
2016-01-09 03:21:00,1648E-3,5C000400,-0724,0833,12329,023.2,045.3,0.264,772.0,01.15,0.508
2016-01-09 03:22:00,1888E-3,5C000400,-0724,0832,12182,023.2,045.3,0.264,772.0,01.15,0.508
2016-01-09 03:23:00,1694E-3,5C000400,-0724,0832,12083,023.2,045.3,0.264,772.0,01.15,0.508
2016-01-09 03:24:00,1727E-3,5C000400,-0724,0832,12218,023.3,045.3,0.264,772.0,01.15,0.508
2016-01-09 03:25:00,1769E-3,5C000400,-0724,0831,12166,023.2,045.3,0.264,772.0,01.15,0.508
2016-01-09 03:26:00,1684E-3,5C000400,-0724,0833,12240,023.2,045.3,0.264,772.0,01.15,0.508
2016-01-09 03:27:00,1863E-3,5C000400,-0724,0832,12195,023.2,045.3,0.264,772.0,01.15,0.508
2016-01-09 03:28:00,1722E-3,5C000400,-0724,0831,12082,023.2,045.3,0.264,771.9,01.15,0.508
2016-01-09 03:29:00,1749E-3,5C000400,-0724,0831,12239,023.2,045.3,0.264,771.9,01.15,0.508
2016-01-09 03:30:00,1708E-3,5C000400,-0724,0832,12261,023.2,045.3,0.264,771.9,01.15,0.508
2016-01-09 03:31:00,1685E-3,5C000400,-0724,0832,12175,023.3,045.3,0.264,771.9,01.15,0.508
2016-01-09 03:32:00,1803E-3,5C000400,-0724,0832,12181,023.3,045.3,0.264,772.0,01.15,0.508
2016-01-09 03:33:00,1706E-3,5C000400,-0724,0831,12196,023.3,045.3,0.264,772.0,01.15,0.508
2016-01-09 03:34:00,1656E-3,5C000400,-0724,0832,12214,023.2,045.3,0.264,771.9,01.15,0.508
2016-01-09 03:35:00,1682E-3,5C000400,-0724,0831,12118,023.2,045.3,0.264,771.9,01.15,0.508
2016-01-09 03:36:00,1817E-3,5C000400,-0724,0832,12211,023.2,045.3,0.264,771.9,01.15,0.508
2016-01-09 03:37:00,1813E-3,5C000400,-0724,0832,12245,023.3,045.3,0.264,771.9,01.15,0.508
2016-01-09 03:38:00,1537E-3,5C000400,-0724,0832,12164,023.3,045.3,0.264,771.9,01.15,0.508
2016-01-09 03:39:00,1713E-3,5C000400,-0724,0832,12181,023.2,045.3,0.264,771.9,01.15,0.508
2016-01-09 03:40:00,1815E-3,5C000400,-0724,0832,12135,023.2,045.3,0.264,771.9,01.15,0.508
2016-01-09 03:41:00,1652E-3,5C000400,-0724,0831,12015,023.2,045.3,0.264,771.9,01.15,0.508
2016-01-09 03:42:00,1771E-3,5C000400,-0724,0832,12136,023.3,045.3,0.264,771.9,01.15,0.508
2016-01-09 03:43:00,1632E-3,5C000400,-0724,0831,12170,023.3,045.3,0.264,771.9,01.15,0.508
2016-01-09 03:44:00,1815E-3,5C000400,-0724,0832,12173,023.3,045.3,0.264,771.9,01.15,0.508
2016-01-09 03:45:00,1731E-3,5C000400,-0724,0832,12232,023.3,045.3,0.264,772.0,01.15,0.508
2016-01-09 03:46:00,1696E-3,5C000400,-0724,0832,12275,023.3,045.3,0.264,771.9,01.15,0.508
2016-01-09 03:47:00,1924E-3,5C000400,-0724,0832,12124,023.2,045.3,0.264,771.9,01.15,0.508
2016-01-09 03:48:00,1684E-3,5C000400,-0724,0831,12141,023.2,045.3,0.264,771.9,01.15,0.508
2016-01-09 03:49:00,1755E-3,5C000400,-0724,0832,12055,023.2,045.3,0.264,771.9,01.15,0.508
2016-01-09 03:50:00,1735E-3,5C000400,-0724,0832,12288,023.2,045.3,0.264,771.9,01.15,0.508
2016-01-09 03:51:00,1756E-3,5C000400,-0724,0832,11970,023.2,045.3,0.264,771.9,01.15,0.508
2016-01-09 03:52:00,1679E-3,5C000400,-0724,0832,12118,023.2,045.3,0.264,771.8,01.15,0.508
2016-01-09 03:53:00,1867E-3,5C000400,-0724,0832,12262,023.2,045.3,0.264,771.8,01.15,0.508
2016-01-09 03:54:00,1727E-3,5C000400,-0724,0831,12249,023.2,045.3,0.264,771.8,01.15,0.508
2016-01-09 03:55:00,1745E-3,5C000400,-0724,0832,12290,023.2,045.3,0.264,771.8,01.15,0.508
2016-01-09 03:56:00,1908E-3,5C000400,-0724,0832,12189,023.2,045.3,0.264,771.9,01.15,0.508
2016-01-09 03:57:00,1844E-3,5C000400,-0724,0832,12265,023.2,045.3,0.264,771.9,01.15,0.508
2016-01-09 03:58:00,1742E-3,5C000400,-0724,0832,12227,023.3,045.3,0.264,771.9,01.15,0.508
2016-01-09 03:59:00,1706E-3,5C000400,-0724,0832,12217,023.2,045.3,0.264,771.9,01.15,0.508
2016-01-09 04:00:00,1707E-3,5C000400,-0724,0832,12077,023.2,045.3,0.264,771.9,01.15,0.508
2016-01-09 04:01:00,1729E-3,5C000400,-0724,0832,12071,023.2,045.3,0.264,771.9,01.15,0.508
2016-01-09 04:02:00,1782E-3,5C000400,-0724,0832,12072,023.3,045.3,0.264,771.9,01.15,0.508
2016-01-09 04:03:00,1733E-3,5C000400,-0724,0832,12245,023.3,045.3,0.264,771.9,01.15,0.508
2016-01-09 04:04:00,1703E-3,5C000400,-0724,0832,12355,023.2,045.3,0.264,771.9,01.15,0.508
2016-01-09 04:05:00,1728E-3,5C000400,-0724,0832,12202,023.2,045.3,0.264,771.9,01.15,0.508
2016-01-09 04:06:00,1675E-3,5C000400,-0724,0832,12285,023.2,045.3,0.264,771.9,01.15,0.508
2016-01-09 04:07:00,1719E-3,5C000400,-0724,0832,11997,023.2,045.3,0.264,771.9,01.15,0.508
2016-01-09 04:08:00,1752E-3,5C000400,-0724,0833,12299,023.2,045.3,0.264,771.9,01.15,0.508
2016-01-09 04:09:00,1737E-3,5C000400,-0724,0832,12235,023.2,045.3,0.265,771.9,01.15,0.508
2016-01-09 04:10:00,1685E-3,5C000400,-0724,0832,12232,023.2,045.3,0.264,771.9,01.15,0.508
2016-01-09 04:11:00,1767E-3,5C000400,-0724,0832,12222,023.2,045.3,0.264,771.9,01.15,0.508
2016-01-09 04:12:00,1708E-3,5C000400,-0724,0831,12052,023.2,045.3,0.264,771.9,01.15,0.508
2016-01-09 04:13:00,1793E-3,5C000400,-0724,0831,12159,023.2,045.3,0.264,771.9,01.15,0.508
2016-01-09 04:14:00,1789E-3,5C000400,-0724,0832,12170,023.2,045.3,0.264,771.9,01.15,0.508
2016-01-09 04:15:00,1729E-3,5C000400,-0724,0831,12122,023.2,045.3,0.265,771.8,01.15,0.508
2016-01-09 04:16:00,1682E-3,5C000400,-0724,0831,12311,023.3,045.3,0.265,771.8,01.15,0.508
2016-01-09 04:17:00,1735E-3,5C000400,-0724,0831,12239,023.3,045.3,0.264,771.8,01.15,0.508
2016-01-09 04:18:00,1608E-3,5C000400,-0724,0831,12203,023.2,045.3,0.264,771.8,01.15,0.508
2016-01-09 04:19:00,1678E-3,5C000400,-0724,0832,12274,023.3,045.3,0.264,771.9,01.15,0.508
2016-01-09 04:20:00,1654E-3,5C000400,-0724,0832,12126,023.3,045.3,0.264,771.9,01.15,0.508